Taurus 1
1 44530U 19059C   25038.83947142  .00012745  00000-0  25056-2 0  9995
2 44530  98.5898 172.8316 0009339  50.9585 309.2445 14.62731775286128
Duchifat 3
1 44854U 19089C   25038.68883463  .00038206  00000-0  11504-2 0  9998
2 44854  36.9497  42.7921 0010560 254.3679 105.5908 15.33382597284141
TO-108
1 44881U 19093C   25038.83384091  .00002006  00000-0  24061-3 0  9995
2 44881  97.8050 117.0077 0012617 271.5150  88.4620 14.85104124278002
FloripaSat 1
1 44885U 19093G   25038.79614783  .00009859  00000-0  88238-3 0  9997
2 44885  97.8235 126.3350 0009934 251.0137 109.0008 14.96010253278522
RS-44
1 44909U 19096E   25037.73226787  .00000011  00000-0  48316-5 0  9999
2 44909  82.5238 308.9206 0216585 222.6449 135.7664 12.79738144238977
UPMSat 2
1 46276U 20061E   25038.76235011  .00042016  00000-0  69461-3 0  9999
2 46276  97.2646 110.5046 0000610  41.7250 318.4050 15.52111199246473
SALSAT
1 46495U 20068K   25038.80947262  .00011746  00000-0  55240-3 0  9998
2 46495  97.8467  11.5721 0010951 215.6965 144.3538 15.19692586240015
CubeSX-Sirius-HSE
1 47951U 21022V   25038.86864229  .00070575  00000-0  11962-2 0  9991
2 47951  97.4351 305.9204 0010067  35.7452 324.4472 15.51229958214752
CubeSX-HSE
1 47952U 21022W   25038.85096501  .00075544  00000-0  12584-2 0  9993
2 47952  97.4353 306.0752 0009707  32.3562 327.8284 15.51702093214764
KSU-Cubesat
1 47954U 21022Y   25038.68843601  .00189150  00000-0  15861-2 0  9997
2 47954  97.4330 309.7642 0007401  47.9279 312.2611 15.69329943214709
GRBAlpha
1 47959U 21022AD  25038.81205798  .00075979  00000-0  12712-2 0  9991
2 47959  97.4341 306.1977 0010029  34.8414 325.3493 15.51573923213582
Orbicraft-Zorkiy
1 47960U 21022AE  25038.85690421  .00117469  00000-0  13619-2 0  9996
2 47960  97.4339 309.2050 0008203  38.7012 321.4832 15.61375638214449
TUBIN
1 48900U 21059X   25038.76897160  .00038254  00000-0  75128-3 0  9998
2 48900  97.6648 199.4101 0005122 328.0966  31.9972 15.47207282201127
LEDSAT
1 49069U 21073D   25038.77453588  .00045759  00000-0  10087-2 0  9994
2 49069  97.4057 116.7597 0013091 161.7084 198.4638 15.43693779192543
CUTE
1 49263U 21088D   25038.46189666  .00022619  00000-0  55732-3 0  9992
2 49263  97.4669 111.6253 0008619 330.0397  30.0355 15.40546900185582
TeikyoSat 4
1 49396U 21102B   25037.66597077  .00004665  00000-0  31756-3 0  9997
2 49396  97.4295  80.4779 0012472 189.1641 170.9361 15.06706515178032
Z-Sat
1 49399U 21102E   25038.84745141  .00006414  00000-0  36897-3 0  9993
2 49399  97.4005  84.0264 0019215 161.2638 198.9304 15.12636279178563
KOSEN 1
1 49402U 21102H   25038.67669490  .00010547  00000-0  52634-3 0  9990
2 49402  97.3915  86.4320 0017634 141.2837 218.9664 15.17550412178783
HO-113
1 50466U 21131B   25038.87379975  .00001102  00000-0  36021-3 0  9991
2 50466  98.5143 128.8496 0005002 133.8442 226.3161 14.40517972163925
IRIS-A
1 51044U 22002BN  25038.78857349  .00074883  00000-0  10452-2 0  9993
2 51044  97.3469 113.5659 0003833 266.0262  94.0555 15.56626932170725
Foresail-1
1 52766U 22057AL  25038.36715916  .00068004  00000-0  96381-3 0  9996
2 52766  97.5970 179.3965 0006085 355.2999   4.8196 15.56226346150695
SNUGLITE 2
1 52899U 22065F   25038.33515157  .00002669  00000-0  53453-3 0  9992
2 52899  98.1463 181.6898 0008349 132.1936 227.9976 14.62579308138612
IO-117
1 53106U 22080B   25034.56446200 -.00000003  00000-0  00000-0 0  9992
2 53106  70.1417 112.1355 0008120  52.7419 307.3980  6.42557586 60132
FO-118
1 54684U 22167C   25038.88880107  .00311964  00000-0  16712-2 0  9996
2 54684  97.6093 201.6807 0007202 325.8422  34.2380 15.79434216120739
SO-120
1 56992U 23084BU  25038.80795198  .01604088  17195-2  22845-2 0  9998
2 56992  97.5157 174.1143 0011838 296.1614  63.8449 16.05865596 92633
UmKA 1 (RS40S)
1 57172U 23091G   25038.88988420  .00008860  00000-0  50419-3 0  9996
2 57172  97.5789  94.9771 0015999  38.6424 321.5949 15.12975685 89061
CubeBel-2 (EU11S)
1 57175U 23091K   25038.85810998  .00012364  00000-0  65114-3 0  9992
2 57175  97.5787  95.4686 0014108  48.7158 311.5287 15.15670292 89096
VERONIKA
1 58261U 23174F   25038.82484039  .00061317  00000-0  13556-2 0  9995
2 58261  97.4304 120.3560 0007479 125.8728 234.3215 15.43595731 69758
KAFASAT
1 58317U 23174BP  25038.79349517  .00148651  00000-0  17199-2 0  9998
2 58317  97.4192 123.3998 0002870  82.8852 277.2731 15.61357259 69977
ENSO
1 58470U 23185J   25038.82618977  .00040934  00000-0  98694-3 0  9998
2 58470  97.3925 111.3124 0009022 157.2726 202.8922 15.41077643 66192
EIRSAT-1
1 58472U 23185L   25038.79817050  .00052900  00000-0  11231-2 0  9996
2 58472  97.3920 111.9196 0008023 158.0198 202.1396 15.44830080 66234
SONATE-2
1 59112U 24043Q   25037.90342496  .00024273  00000-0  84853-3 0  9994
2 59112  97.4959 167.3007 0011943 187.8035 172.3021 15.29477305 51541
MO-122
1 60209U 24125G   25036.82899390  .00025585  00000-0  88463-3 0  9992
2 60209  97.2951 250.2295 0020393 218.4843 141.4944 15.29687806 32996
GRBBeta
1 60237U 24128C   25037.62583599  .00007010  00000-0  55672-3 0  9995
2 60237  61.9923 147.6974 0039208  28.7051 331.6185 15.00744681 31730
Curium One
1 60242U 24128H   25037.61909529  .00011398  00000-0  86618-3 0  9993
2 60242  61.9826 147.4277 0039504  22.8188 337.4647 15.01954386 31741
ROBUSTA-3A
1 60243U 24128J   25037.65512845  .00011399  00000-0  87584-3 0  9993
2 60243  61.9894 147.7614 0037633  20.8234 339.4379 15.01591844 31746
CatSat
1 60246U 24125J   25037.56829262  .00014861  00000-0  55018-3 0  9991
2 60246  97.2741 251.3425 0045953 169.6959 190.5233 15.26745814 31193
HYPERVIEW-1G (RS66S)
1 61772U 24199AP  25038.87718624  .00023556  00000-0  85183-3 0  9998
2 61772  97.3743 268.4259 0014148 268.8680  91.0938 15.28344522 58324
AO-123
1 61781U 24199AY  25038.83692782  .00012435  00000-0  49110-3 0  9994
2 61781  97.3752 268.1849 0015175 269.8834  90.0665 15.25550300 58303
POEM 4 (BGS ARPIT)
1 62461U 24253C   25038.42745080  .00134898  00000-0  69597-3 0  9995
2 62461  55.2203  71.0531 0011995  32.1508 328.0270 15.80202747  6092
